Weather History for Siloam Springs, AR

Change the Weather History Date:

Monday, October 1, 2012

  Actual Average Record
Temperature  
Mean Temperature 64 °F -  
Max Temperature 73 °F 72 °F 87 °F (2002)
Min Temperature 55 °F 51 °F 41 °F (2011)
Degree Days  
Heating Degree Days 1    
Growing Degree Days 14 (Base 50)    
Moisture  
Dew Point 50 °F    
Average Humidity 62    
Maximum Humidity 82    
Minimum Humidity 43    
Precipitation  
Precipitation 0.00 in - - ()
Sea Level Pressure  
Sea Level Pressure 29.84 in    
Wind  
Wind Speed 7 mph (NNW)    
Max Wind Speed 16 mph    
Max Gust Speed 24 mph    
Visibility 10 miles    
Events      
Averages and records for this station are not official NWS values.
T = Trace of Precipitation, MM = Missing Value Source: NWS Daily Summary

Daily Weather History Graph

Daily Weather History Graph

Search for Another Location

Airport:

Trip Planner

Search our weather history database for the weather conditions in past years. The results will help you decide how hot, cold, wet, or windy it might be!

Date:

Astronomy

Oct. 01, 2012 Rise Set
Actual Time 7:13 AM CDT 7:00 PM CDT
Civil Twilight 6:47 AM CDT 7:26 PM CDT
Nautical Twilight 6:18 AM CDT 7:56 PM CDT
Astronomical Twilight 5:48 AM CDT 8:26 PM CDT
Moon 7:43 PM CDT (10/1) 8:39 AM CDT (10/1)
Length of Visible Light 12h 38m
Length of Day
11h 47m
Full, 98% of the Moon is Illuminated
Oct 1
Full
Oct 8
Last Quarter
Oct 15
New
Oct 21
First Quarter
Oct 29
Full

Hourly Weather History & Observations

Time (CDT) Temp. Dew Point Humidity Pressure Visibility Wind Dir Wind Speed Gust Speed Precip Events Conditions
12:35 AM 60.8 °F 51.8 °F 72% 29.86 in 10.0 mi NNW 5.8 mph - N/A   Clear
12:55 AM 60.8 °F 51.8 °F 72% 29.85 in 10.0 mi North 5.8 mph - N/A   Clear
1:15 AM 59.0 °F 51.8 °F 77% 29.85 in 10.0 mi NNW 4.6 mph - N/A   Clear
1:55 AM 60.8 °F 51.8 °F 72% 29.85 in 10.0 mi NNE 6.9 mph - N/A   Scattered Clouds
2:15 AM 62.6 °F 51.8 °F 68% 29.85 in 10.0 mi NNE 6.9 mph - N/A   Mostly Cloudy
2:35 AM 60.8 °F 51.8 °F 72% 29.84 in 10.0 mi North 4.6 mph - N/A   Scattered Clouds
2:55 AM 60.8 °F 51.8 °F 72% 29.84 in 10.0 mi North 5.8 mph - N/A   Clear
3:15 AM 60.8 °F 51.8 °F 72% 29.83 in 10.0 mi NNE 5.8 mph - N/A   Clear
3:16 AM 60.8 °F 51.8 °F 72% 29.83 in 10.0 mi NNE 5.8 mph - N/A   Clear
3:35 AM 60.8 °F 51.8 °F 72% 29.83 in 10.0 mi North 5.8 mph - N/A   Clear
3:55 AM 60.8 °F 51.8 °F 72% 29.83 in 10.0 mi NNE 4.6 mph - N/A   Clear
4:15 AM 59.0 °F 51.8 °F 77% 29.82 in 10.0 mi NNE 5.8 mph - N/A   Clear
5:35 AM 57.2 °F 50.0 °F 77% 29.83 in 10.0 mi NW 6.9 mph - N/A   Clear
5:55 AM 57.2 °F 50.0 °F 77% 29.83 in 10.0 mi North 5.8 mph - N/A   Clear
6:15 AM 57.2 °F 50.0 °F 77% 29.83 in 10.0 mi NNW 5.8 mph - N/A   Partly Cloudy
6:36 AM 57.2 °F 50.0 °F 77% 29.84 in 10.0 mi North 4.6 mph - N/A   Partly Cloudy
6:55 AM 57.2 °F 50.0 °F 77% 29.84 in 10.0 mi North 5.8 mph - N/A   Clear
7:15 AM 55.4 °F 50.0 °F 82% 29.83 in 10.0 mi NNW 3.5 mph - N/A   Clear
7:36 AM 57.2 °F 50.0 °F 77% 29.83 in 10.0 mi NNW 5.8 mph - N/A   Clear
8:15 AM 57.2 °F 51.8 °F 82% 29.84 in 10.0 mi NNW 4.6 mph - N/A   Clear
9:15 AM 60.8 °F 53.6 °F 77% 29.85 in 10.0 mi North 5.8 mph - N/A   Clear
9:35 AM 62.6 °F 53.6 °F 72% 29.85 in 10.0 mi North 8.1 mph - N/A   Clear
10:15 AM 64.4 °F 51.8 °F 64% 29.84 in 10.0 mi North 9.2 mph - N/A   Clear
10:35 AM 66.2 °F 51.8 °F 60% 29.84 in 10.0 mi North 8.1 mph - N/A   Clear
11:15 AM 68.0 °F 50.0 °F 52% 29.84 in 10.0 mi North 6.9 mph - N/A   Clear
11:35 AM 68.0 °F 50.0 °F 52% 29.84 in 10.0 mi NNW 9.2 mph - N/A   Clear
11:55 AM 68.0 °F 48.2 °F 49% 29.84 in 10.0 mi NNW 10.4 mph - N/A   Clear
12:15 PM 69.8 °F 50.0 °F 49% 29.84 in 10.0 mi NNW 10.4 mph - N/A   Clear
12:16 PM 69.8 °F 50.0 °F 49% 29.84 in 10.0 mi NNW 10.4 mph - N/A   Clear
12:35 PM 69.8 °F 51.8 °F 53% 29.84 in 10.0 mi NNW 10.4 mph - N/A   Clear
1:15 PM 69.8 °F 51.8 °F 53% 29.84 in 10.0 mi NNW 10.4 mph - N/A   Clear
1:35 PM 69.8 °F 51.8 °F 53% 29.83 in 10.0 mi NNW 11.5 mph 16.1 mph N/A   Clear
1:55 PM 69.8 °F 51.8 °F 53% 29.83 in 10.0 mi NW 12.7 mph - N/A   Clear
2:15 PM 71.6 °F 53.6 °F 53% 29.82 in 10.0 mi NW 11.5 mph - N/A   Clear
3:15 PM 73.4 °F 53.6 °F 50% 29.80 in 10.0 mi NNW 16.1 mph 24.2 mph N/A   Clear
3:35 PM 71.6 °F 51.8 °F 50% 29.80 in 10.0 mi North 11.5 mph 21.9 mph N/A   Clear
4:15 PM 71.6 °F 48.2 °F 43% 29.80 in 10.0 mi North 15.0 mph 20.7 mph N/A   Clear
4:36 PM 71.6 °F 51.8 °F 50% 29.80 in 10.0 mi North 11.5 mph - N/A   Clear
4:55 PM 71.6 °F 51.8 °F 50% 29.80 in 10.0 mi NNW 15.0 mph 19.6 mph N/A   Clear
5:15 PM 71.6 °F 50.0 °F 46% 29.80 in 10.0 mi North 13.8 mph - N/A   Clear
5:55 PM 71.6 °F 48.2 °F 43% 29.81 in 10.0 mi North 15.0 mph 21.9 mph N/A   Clear
6:15 PM 69.8 °F 48.2 °F 46% 29.81 in 10.0 mi North 8.1 mph - N/A   Clear
6:35 PM 68.0 °F 48.2 °F 49% 29.81 in 10.0 mi North 9.2 mph - N/A   Clear
6:56 PM 66.2 °F 48.2 °F 52% 29.81 in 10.0 mi NNW 5.8 mph - N/A   Clear
7:15 PM 64.4 °F 48.2 °F 56% 29.82 in 10.0 mi North 5.8 mph - N/A   Clear
7:35 PM 62.6 °F 48.2 °F 59% 29.82 in 10.0 mi NNW 6.9 mph - N/A   Clear
7:55 PM 62.6 °F 48.2 °F 59% 29.83 in 10.0 mi NNW 6.9 mph - N/A   Clear
8:15 PM 62.6 °F 48.2 °F 59% 29.83 in 10.0 mi NNW 5.8 mph - N/A   Clear
8:35 PM 62.6 °F 48.2 °F 59% 29.84 in 10.0 mi NNW 5.8 mph - N/A   Clear
8:55 PM 60.8 °F 48.2 °F 63% 29.85 in 10.0 mi North 5.8 mph - N/A   Clear
9:15 PM 62.6 °F 48.2 °F 59% 29.86 in 10.0 mi North 6.9 mph - N/A   Clear
9:16 PM 62.6 °F 48.2 °F 59% 29.86 in 10.0 mi North 6.9 mph - N/A   Clear
9:55 PM 60.8 °F 48.2 °F 63% 29.87 in 10.0 mi NNW 6.9 mph - N/A   Clear
10:15 PM 60.8 °F 48.2 °F 63% 29.87 in 10.0 mi NNW 5.8 mph - N/A   Clear
10:35 PM 60.8 °F 48.2 °F 63% 29.87 in 10.0 mi Calm Calm - N/A   Clear
10:55 PM 59.0 °F 46.4 °F 63% 29.88 in 10.0 mi NNW 6.9 mph - N/A   Clear
11:15 PM 60.8 °F 46.4 °F 59% 29.87 in 10.0 mi North 5.8 mph - N/A   Clear
11:35 PM 57.2 °F 46.4 °F 67% 29.87 in 10.0 mi North 5.8 mph - N/A   Clear
11:55 PM 55.4 °F 46.4 °F 72% 29.87 in 10.0 mi North 5.8 mph - N/A   Clear